Photometre #849[NE_1.6_Dp] Loftus_MO AOT

File : 20210607_849.hum

07/06/2021,10:17:23,TEMP=19.0,BA=6.48,STAT.D,ExtBa=14.50
07/06/2021,10:32:23,TEMP=20.6,BA=6.32,STAT.D,ExtBa=14.70
07/06/2021,10:47:24,TEMP=21.1,BA=6.44,STAT.D,ExtBa=14.30
07/06/2021,11:02:25,TEMP=19.9,BA=5.72,STAT.F,ExtBa=14.10
07/06/2021,11:17:24,TEMP=20.4,BA=5.88,STAT.D,ExtBa=14.50
07/06/2021,11:32:24,TEMP=21.5,BA=5.92,STAT.D,ExtBa=14.30
07/06/2021,11:47:24,TEMP=22.3,BA=6.00,STAT.D,ExtBa=14.30
07/06/2021,12:02:25,TEMP=22.3,BA=6.00,STAT.F,ExtBa=14.30
07/06/2021,12:17:24,TEMP=21.4,BA=5.80,STAT.D,ExtBa=14.50
07/06/2021,12:32:24,TEMP=22.0,BA=5.92,STAT.D,ExtBa=14.30
07/06/2021,12:47:24,TEMP=21.9,BA=6.08,STAT.D,ExtBa=14.20
07/06/2021,13:02:25,TEMP=21.5,BA=5.92,STAT.F,ExtBa=14.50
07/06/2021,13:27:05,TEMP=24.8,BA=5.68,STAT.D,ExtBa=14.10
07/06/2021,13:32:24,TEMP=23.8,BA=5.88,STAT.D,ExtBa=14.40
07/06/2021,13:47:23,TEMP=23.9,BA=6.44,STAT.D,ExtBa=14.50
07/06/2021,14:02:25,TEMP=23.2,BA=6.04,STAT.F,ExtBa=14.50
07/06/2021,14:27:33,TEMP=22.7,BA=5.68,STAT.D,ExtBa=13.00
07/06/2021,14:32:23,TEMP=22.0,BA=5.68,STAT.D,ExtBa=13.20
07/06/2021,14:47:23,TEMP=21.8,BA=5.68,STAT.D,ExtBa=13.40
07/06/2021,15:02:25,TEMP=21.9,BA=5.68,STAT.F,ExtBa=13.40
07/06/2021,15:38:09,TEMP=22.4,BA=5.68,STAT.b=15.0
07/06/2021,15:38:27,TEMP=22.4,BA=5.68,STAT.b=15.0
07/06/2021,15:38:52,TEMP=22.3,BA=5.68,STAT.D,ExtBa=12.80
07/06/2021,15:47:23,TEMP=21.3,BA=5.68,STAT.D,ExtBa=13.00
07/06/2021,15:58:28,TEMP=21.2,BA=5.68,STAT.B,ExtBa=13.10
07/06/2021,16:40:27,TEMP=21.0,BA=5.68,STAT.B,ExtBa=13.20
07/06/2021,17:00:53,TEMP=20.9,BA=5.68,STAT.A,ExtBa=12.90
07/06/2021,17:17:33,TEMP=20.2,BA=5.68,STAT.A,ExtBa=13.00
07/06/2021,17:31:27,TEMP=20.2,BA=5.68,STAT.A,ExtBa=13.00
07/06/2021,17:43:17,TEMP=20.1,BA=5.68,STAT.A,ExtBa=13.00
07/06/2021,17:53:29,TEMP=20.1,BA=5.68,STAT.C,ExtBa=12.90
07/06/2021,18:30:15,TEMP=21.0,BA=5.28,STAT.A,ExtBa=12.70
07/06/2021,18:32:15,TEMP=20.8,BA=5.28,STAT.A,ExtBa=12.70
07/06/2021,18:34:16,TEMP=20.7,BA=5.28,STAT.A,ExtBa=12.80
07/06/2021,18:36:16,TEMP=20.6,BA=5.28,STAT.A,ExtBa=12.80
07/06/2021,18:38:18,TEMP=20.4,BA=5.28,STAT.B,ExtBa=12.80
07/06/2021,18:41:13,TEMP=20.0,BA=5.68,STAT.A,ExtBa=12.80
07/06/2021,18:50:54,TEMP=19.4,BA=5.68,STAT.A,ExtBa=12.80
07/06/2021,18:58:35,STAT.r
07/06/2021,19:05:17,STAT.r
07/06/2021,19:11:00,STAT.r
07/06/2021,19:15:57,STAT.r
07/06/2021,20:15:00,STAT.r